This is the latest recevied weather packets stored in our database for station/object N3FAA. If no packets are shown the sender has not sent any weather packets the latest 10 day(s).
| Time | Temp. | Humidity | Pressure | Rain* | Wind** | Luminosity | Snow |
|---|---|---|---|---|---|---|---|
| 1778171379 | 23.89° C | 36% | 1014.7 hPa | 0 mm | - | 692 W/m² | - |
| 1778171074 | 23.89° C | 35% | 1014.7 hPa | 0 mm | - | 655 W/m² | - |
| 1778170772 | 22.78° C | 38% | 1014.7 hPa | 0 mm | - | 645 W/m² | - |
| 1778170467 | 22.78° C | 37% | 1014.7 hPa | 0 mm | - | 639 W/m² | - |
| 1778170164 | 22.78° C | 38% | 1015 hPa | 0 mm | - | 595 W/m² | - |
| 1778169860 | 22.78° C | 38% | 1014.6 hPa | 0 mm | - | 576 W/m² | - |
| 1778169556 | 22.22° C | 40% | 1014.6 hPa | 0 mm | - | 543 W/m² | - |
| 1778169252 | 22.22° C | 40% | 1014.8 hPa | 0 mm | - | 475 W/m² | - |
| 1778168950 | 21.67° C | 40% | 1014.7 hPa | 0 mm | - | 461 W/m² | - |
| 1778168646 | 21.67° C | 40% | 1014.8 hPa | 0 mm | - | 422 W/m² | - |
| 1778168344 | 21.11° C | 42% | 1014.7 hPa | 0 mm | - | 386 W/m² | - |
| 1778168040 | 21.11° C | 42% | 1014.8 hPa | 0 mm | - | 333 W/m² | - |
| 1778167736 | 21.11° C | 42% | 1014.9 hPa | 0 mm | - | 321 W/m² | - |
| 1778167433 | 20.56° C | 42% | 1015 hPa | 0 mm | - | 308 W/m² | - |
| 1778167129 | 20.56° C | 43% | 1015 hPa | 0 mm | - | 304 W/m² | - |
| 1778166825 | 20.56° C | 43% | 1015 hPa | 0 mm | - | 293 W/m² | - |
| 1778166522 | 19.44° C | 45% | 1015 hPa | 0 mm | - | 279 W/m² | - |
| 1778166219 | 19.44° C | 45% | 1015 hPa | 0 mm | - | 254 W/m² | - |
| 1778165915 | 18.89° C | 47% | 1015 hPa | 0 mm | - | 243 W/m² | - |
| 1778165612 | 18.33° C | 48% | 1015.1 hPa | 0 mm | - | 232 W/m² | - |
| 1778165309 | 18.33° C | 48% | 1015 hPa | 0 mm | - | 218 W/m² | - |
| 1778165006 | 18.33° C | 48% | 1014.9 hPa | 0 mm | - | 165 W/m² | - |
| 1778164702 | 17.78° C | 50% | 1014.9 hPa | 0 mm | - | 141 W/m² | - |
| 1778164400 | 17.22° C | 51% | 1014.9 hPa | 0 mm | - | 144 W/m² | - |
| 1778164096 | 17.22° C | 52% | 1014.9 hPa | 0 mm | - | 146 W/m² | - |
* Rain latest hour (hover to see other rain measurements)
** Current wind speed in m/s (hover to see current wind gust speed)